Melbourne, FL

4:07 PM EST on February 24, 2017 (GMT -0500)
Melbourne International

Weather History for KMLB - November, 2012

Change the Weather History Date:

Thursday, November 1, 2012

  Actual Average Record
Temperature  
Mean Temperature 68 °F 72 °F  
Max Temperature 79 °F 81 °F 90 °F (2013)
Min Temperature 56 °F 63 °F 37 °F (1993)
Degree Days  
Heating Degree Days 0 0  
Month to date heating degree days 0 0  
Since 1 July heating degree days 19 4  
Cooling Degree Days 3 8  
Month to date cooling degree days 3 8  
Year to date cooling degree days 3334 3045  
Growing Degree Days 18 (Base 50)    
Moisture  
Dew Point 57 °F    
Average Humidity 68    
Maximum Humidity 93    
Minimum Humidity 43    
Precipitation  
Precipitation 0.00 in 0.11 in 2.06 in (2006)
Month to date precipitation 0.00 0.11  
Year to date precipitation 36.91 46.66  
Sea Level Pressure  
Sea Level Pressure 30.00 in    
Wind  
Wind Speed 9 mph (WSW)    
Max Wind Speed 20 mph    
Max Gust Speed 24 mph    
Visibility 10 miles    
Events      
T = Trace of Precipitation, MM = Missing Value Source: NWS Daily Summary

Daily Weather History Graph

Daily Weather History Graph

Search for Another Location

Airport or City:

Trip Planner

Search our weather history database for the weather conditions in past years. The results will help you decide how hot, cold, wet, or windy it might be!

Date:

Astronomy

Nov. 01, 2012 Rise Set
Actual Time 7:34 AM EDT 6:37 PM EDT
Civil Twilight 7:10 AM EDT 7:01 PM EDT
Nautical Twilight 6:42 AM EDT 7:29 PM EDT
Astronomical Twilight 6:14 AM EDT 7:57 PM EDT
Moon 8:44 PM EDT (11/1) 9:55 AM EDT (11/1)
Length of Visible Light 11h 51m
Length of Day
11h 03m
Waning Gibbous, 93% of the Moon is Illuminated
Nov 1
Waning Gibbous
Nov 6
Last Quarter
Nov 13
New
Nov 20
First Quarter
Nov 28
Full

Hourly Weather History & Observations

Time (EDT) Temp. Dew Point Humidity Pressure Visibility Wind Dir Wind Speed Gust Speed Precip Events Conditions
12:53 AM 57.9 °F 51.1 °F 78% 30.02 in 10.0 mi WSW 10.4 mph - N/A   Clear
1:53 AM 57.9 °F 52.0 °F 81% 30.02 in 10.0 mi SW 6.9 mph - N/A   Clear
2:53 AM 57.0 °F 52.0 °F 83% 30.01 in 10.0 mi SW 6.9 mph - N/A   Clear
3:53 AM 57.9 °F 53.1 °F 84% 30.01 in 10.0 mi WSW 9.2 mph - N/A   Clear
4:53 AM 57.0 °F 54.0 °F 89% 30.01 in 10.0 mi WSW 8.1 mph - N/A   Clear
6:53 AM 57.9 °F 55.0 °F 90% 30.01 in 10.0 mi WSW 9.2 mph - N/A   Clear
7:53 AM 59.0 °F 57.0 °F 93% 30.02 in 10.0 mi WSW 8.1 mph - N/A   Clear
8:53 AM 64.0 °F 59.0 °F 84% 30.02 in 10.0 mi West 9.2 mph - N/A   Clear
9:53 AM 69.1 °F 59.0 °F 70% 30.03 in 10.0 mi West 9.2 mph - N/A   Clear
10:53 AM 72.0 °F 59.0 °F 64% 30.04 in 10.0 mi WNW 10.4 mph - N/A   Clear
11:53 AM 75.9 °F 57.9 °F 54% 30.03 in 10.0 mi WNW 15.0 mph - N/A   Clear
12:53 PM 77.0 °F 55.0 °F 47% 30.01 in 10.0 mi WSW 11.5 mph - N/A   Clear
1:53 PM 77.0 °F 54.0 °F 45% 29.97 in 10.0 mi West 15.0 mph 18.4 mph N/A   Overcast
2:53 PM 78.1 °F 57.0 °F 48% 29.95 in 10.0 mi SW 16.1 mph - N/A   Partly Cloudy
3:53 PM 78.1 °F 55.0 °F 45% 29.94 in 10.0 mi West 16.1 mph 24.2 mph N/A   Clear
4:53 PM 77.0 °F 57.9 °F 52% 29.93 in 10.0 mi WSW 12.7 mph 19.6 mph N/A   Clear
5:53 PM 75.0 °F 59.0 °F 57% 29.94 in 10.0 mi WSW 10.4 mph - N/A   Clear
6:53 PM 71.1 °F 60.1 °F 68% 29.96 in 10.0 mi WSW 6.9 mph - N/A   Clear
7:53 PM 68.0 °F 59.0 °F 73% 29.97 in 10.0 mi West 5.8 mph - N/A   Clear
8:53 PM 66.9 °F 59.0 °F 76% 29.98 in 10.0 mi WSW 5.8 mph - N/A   Clear
9:53 PM 64.9 °F 60.1 °F 84% 30.00 in 10.0 mi WSW 5.8 mph - N/A   Clear
10:53 PM 64.0 °F 60.1 °F 87% 30.01 in 10.0 mi WSW 5.8 mph - N/A   Clear
11:53 PM 63.0 °F 60.1 °F 90% 30.02 in 10.0 mi West 5.8 mph - N/A   Clear